Change the Weather History Date:

Wednesday, April 30, 2014

  Actual Average Record
Temperature  
Mean Temperature 60 °F 52 °F  
Max Temperature 69 °F 63 °F 86 °F (1942)
Min Temperature 51 °F 40 °F 20 °F (1939)
Degree Days  
Heating Degree Days 5 14  
Month to date heating degree days 527 563  
Since 1 July heating degree days 7252 6607  
Cooling Degree Days 0 0  
Month to date cooling degree days 0 4  
Year to date cooling degree days 0 4  
Growing Degree Days 12 (Base 50)    
Moisture  
Dew Point 51 °F    
Average Humidity 66    
Maximum Humidity 86    
Minimum Humidity 45    
Precipitation  
Precipitation 0.05 in 0.10 in 1.26 in (1962)
Month to date precipitation 2.48 2.89  
Year to date precipitation 7.70 7.91  
Snow  
Snow 0.00 in 0.00 in 0.80 in ()
Month to date snowfall 1.3 2.3  
Since 1 July snowfall 83.9 47.4  
Snow Depth 0.00 in    
Sea Level Pressure  
Sea Level Pressure 29.76 in    
Wind  
Wind Speed 13 mph (South)    
Max Wind Speed 22 mph    
Max Gust Speed 29 mph    
Visibility 9 miles    
Events Rain    
T = Trace of Precipitation, MM = Missing Value Source: NWS Daily Summary

Daily Weather History Graph

Daily Weather History Graph

Search for Another Location

Airport or City:

Trip Planner

Search our weather history database for the weather conditions in past years. The results will help you decide how hot, cold, wet, or windy it might be!

Date:

Astronomy

Apr. 30, 2014 Rise Set
Actual Time 6:30 AM EDT 8:34 PM EDT
Civil Twilight 5:59 AM EDT 9:05 PM EDT
Nautical Twilight 5:21 AM EDT 9:43 PM EDT
Astronomical Twilight 4:40 AM EDT 10:25 PM EDT
Moon 7:29 AM EDT 10:14 PM EDT
Length of Visible Light 15h 06m
Length of Day
14h 04m
New Moon, 2% of the Moon is Illuminated
Apr 30
New Moon
May 6
First Quarter
May 14
Full
May 21
Last Quarter
May 28
New

Hourly Weather History & Observations

Time (EDT) Temp. Dew Point Humidity Pressure Visibility Wind Dir Wind Speed Gust Speed Precip Events Conditions
12:53 AM 55.9 °F 52.0 °F 87% 29.80 in 10.0 mi SE 8.1 mph - N/A   Mostly Cloudy
1:53 AM 57.0 °F 52.0 °F 83% 29.78 in 10.0 mi SE 17.3 mph 26.5 mph N/A   Mostly Cloudy
2:53 AM 55.9 °F 50.0 °F 80% 29.77 in 10.0 mi SSE 18.4 mph 26.5 mph N/A   Scattered Clouds
3:01 AM 55.9 °F 50.0 °F 80% 29.77 in 10.0 mi SSE 18.4 mph - N/A   Mostly Cloudy
3:37 AM 55.0 °F 50.0 °F 83% 29.77 in 10.0 mi SSE 16.1 mph 28.8 mph N/A   Scattered Clouds
3:53 AM 55.0 °F 50.0 °F 83% 29.77 in 10.0 mi SSE 18.4 mph 24.2 mph N/A   Partly Cloudy
4:09 AM 55.9 °F 50.0 °F 80% 29.78 in 10.0 mi South 13.8 mph - N/A   Mostly Cloudy
4:32 AM 55.0 °F 50.0 °F 83% 29.79 in 10.0 mi South 13.8 mph - N/A   Overcast
4:53 AM 55.0 °F 48.9 °F 80% 29.78 in 10.0 mi SSE 18.4 mph - N/A   Overcast
5:53 AM 55.0 °F 48.9 °F 80% 29.78 in 10.0 mi SSE 13.8 mph - N/A   Overcast
6:53 AM 55.4 °F 50.0 °F 82% 29.79 in 10.0 mi SSE 15.0 mph - N/A   Overcast
7:14 AM 55.0 °F 50.0 °F 83% 29.80 in 10.0 mi SSE 13.8 mph - N/A   Overcast
7:53 AM 55.0 °F 50.0 °F 83% 29.80 in 10.0 mi SSE 11.5 mph - N/A   Overcast
8:53 AM 55.9 °F 50.0 °F 80% 29.80 in 10.0 mi SSE 9.2 mph - N/A   Overcast
9:53 AM 57.9 °F 51.1 °F 78% 29.79 in 10.0 mi SSE 15.0 mph - N/A   Overcast
10:53 AM 60.8 °F 51.8 °F 72% 29.78 in 10.0 mi South 18.4 mph 24.2 mph N/A   Mostly Cloudy
11:45 AM 63.0 °F 51.1 °F 65% 29.78 in 10.0 mi South 13.8 mph 23.0 mph N/A   Overcast
11:53 AM 63.0 °F 51.1 °F 65% 29.78 in 10.0 mi South 10.4 mph - N/A   Overcast
12:02 PM 62.1 °F 50.0 °F 65% 29.78 in 10.0 mi South 10.4 mph - N/A   Overcast
12:27 PM 64.0 °F 51.1 °F 63% 29.77 in 10.0 mi South 12.7 mph 17.3 mph N/A   Mostly Cloudy
12:53 PM 64.0 °F 50.0 °F 60% 29.77 in 10.0 mi South 11.5 mph - N/A   Overcast
1:53 PM 66.9 °F 48.9 °F 52% 29.74 in 10.0 mi SSW 13.8 mph 19.6 mph N/A   Partly Cloudy
2:53 PM 68.0 °F 48.0 °F 49% 29.73 in 10.0 mi South 15.0 mph 19.6 mph N/A   Overcast
3:53 PM 68.0 °F 46.9 °F 47% 29.72 in 10.0 mi SSW 9.2 mph - N/A   Mostly Cloudy
4:53 PM 66.9 °F 46.9 °F 49% 29.71 in 10.0 mi WSW 10.4 mph - N/A   Overcast
5:53 PM 64.0 °F 50.0 °F 60% 29.72 in 10.0 mi NW 6.9 mph - N/A   Overcast
6:53 PM 62.1 °F 52.0 °F 70% 29.73 in 10.0 mi South 10.4 mph - N/A   Overcast
6:56 PM 62.1 °F 52.0 °F 70% 29.73 in 10.0 mi South 11.5 mph - N/A   Overcast
7:12 PM 61.0 °F 52.0 °F 72% 29.73 in 10.0 mi SSE 10.4 mph - N/A   Overcast
7:53 PM 59.0 °F 52.0 °F 78% 29.73 in 7.0 mi SSE 8.1 mph - N/A   Mostly Cloudy
8:44 PM 57.9 °F 52.0 °F 81% 29.73 in 8.0 mi SSE 9.2 mph - 0.00 in Rain Light Rain
8:53 PM 57.9 °F 52.0 °F 81% 29.74 in 7.0 mi South 12.7 mph - 0.00 in   Overcast
9:21 PM 57.0 °F 52.0 °F 83% 29.73 in 6.0 mi South 5.8 mph - 0.00 in   Haze
9:53 PM 55.9 °F 52.0 °F 87% 29.75 in 5.0 mi SSE 8.1 mph - 0.00 in   Overcast
10:53 PM 57.0 °F 52.0 °F 83% 29.75 in 3.0 mi SSW 6.9 mph - 0.01 in Rain Rain
11:53 PM 55.0 °F 51.1 °F 86% 29.74 in 3.0 mi West 5.8 mph - 0.04 in   Overcast